EW8119 Weather Reports


time (UTC)temp
C
wind
direction
speed
KPH
gust
KPH
rain 1hr
cm
rain 24hr
cm
rain mn
cm
humidity
%
barometer
mb
20260508130737 8 85 3.2 6.4 0.00 0.00 0.00 82 1018.0
20260508130235 8 63 3.2 4.8 0.00 0.00 0.00 84 1017.8
20260508125730 7 66 1.6 3.2 0.00 0.00 0.00 87 1017.8
20260508125227 7 195 0.0 3.2 0.00 0.00 0.00 87 1017.8
20260508124725 7 255 0.0 3.2 0.00 0.00 0.00 88 1017.8
20260508124222 7 12 0.0 4.8 0.00 0.00 0.00 88 1018.0
20260508123720 7 40 1.6 4.8 0.00 0.00 0.00 89 1018.0
20260508123218 6 41 3.2 3.2 0.00 0.00 0.00 89 1017.8
20260508122713 6 286 0.0 1.6 0.00 0.00 0.00 90 1017.5
20260508122210 6 90 0.0 1.6 0.00 0.00 0.00 89 1017.4
20260508121708 6 180 0.0 1.6 0.00 0.00 0.00 90 1017.3
20260508121207 6 114 0.0 0.0 0.00 0.00 0.00 91 1017.0
20260508120704 5 97 0.0 1.6 0.00 0.00 0.00 90 1016.8
20260508120202 6 103 0.0 3.2 0.00 0.00 0.00 90 1016.7
20260508115659 6 109 1.6 3.2 0.00 0.00 0.00 90 1016.4
20260508115156 6 119 3.2 4.8 0.00 0.00 0.00 91 1016.4
20260508114653 5 97 1.6 3.2 0.00 0.00 0.00 91 1016.4
20260508114149 5 54 1.6 3.2 0.00 0.00 0.00 90 1016.4
20260508113646 5 114 1.6 3.2 0.00 0.00 0.00 90 1016.3
20260508113144 6 114 0.0 3.2 0.00 0.00 0.00 90 1016.4
20260508112640 6 117 3.2 4.8 0.00 0.00 0.00 90 1016.1
20260508112137 6 54 1.6 3.2 0.00 0.00 0.00 90 1016.2
20260508111634 6 7 1.6 3.2 0.00 0.00 0.00 89 1016.5
20260508111131 6 42 4.8 8.0 0.00 0.00 0.00 90 1016.4
20260508110629 6 71 3.2 4.8 0.00 0.00 0.00 90 1015.8
20260508110125 6 123 4.8 4.8 0.00 0.00 0.00 90 1016.2
20260508105620 6 47 4.8 6.4 0.00 0.00 0.00 90 1016.1
20260508105117 6 33 4.8 6.4 0.00 0.00 0.00 91 1016.1
20260508104615 6 77 1.6 3.2 0.00 0.00 0.00 90 1016.1
20260508104111 6 50 3.2 4.8 0.00 0.00 0.00 90 1016.1
20260508103608 6 35 0.0 1.6 0.00 0.00 0.00 90 1015.8
20260508103106 6 66 0.0 3.2 0.00 0.00 0.00 90 1016.0
20260508102603 6 42 4.8 6.4 0.00 0.00 0.00 89 1016.1
20260508102101 6 48 3.2 9.7 0.00 0.00 0.00 87 1015.6
20260508101558 7 28 3.2 3.2 0.00 0.00 0.00 86 1015.5
20260508101055 7 145 0.0 1.6 0.00 0.00 0.00 86 1015.3
20260508100553 7 221 3.2 4.8 0.00 0.00 0.00 86 1015.5
20260508100049 7 203 1.6 3.2 0.00 0.00 0.00 86 1015.3
20260508095547 7 140 1.6 3.2 0.00 0.00 0.00 86 1015.3
20260508095043 7 114 1.6 3.2 0.00 0.00 0.00 86 1015.0
20260508094541 7 144 3.2 4.8 0.00 0.00 0.00 85 1015.0
20260508094037 7 120 3.2 4.8 0.00 0.00 0.00 85 1015.1
20260508093534 7 114 1.6 1.6 0.00 0.00 0.00 85 1015.4
20260508093032 7 110 3.2 6.4 0.00 0.00 0.00 85 1014.9
20260508092529 7 66 1.6 4.8 0.00 0.00 0.00 85 1015.5
20260508092028 7 103 1.6 4.8 0.00 0.00 0.00 84 1015.6
20260508091525 7 63 3.2 4.8 0.00 0.00 0.00 84 1015.6
20260508091022 8 48 3.2 8.0 0.00 0.00 0.00 84 1015.5
20260508090520 7 78 3.2 4.8 0.00 0.00 0.00 84 1015.6
20260508090016 8 53 3.2 8.0 0.00 0.00 0.00 83 1015.5
20260508085513 8 29 4.8 8.0 0.00 0.00 0.00 83 1015.5
20260508085010 8 40 4.8 8.0 0.00 0.00 0.00 83 1015.7
20260508084507 7 37 8.0 9.7 0.00 0.00 0.00 84 1015.7
20260508084004 7 45 0.0 4.8 0.00 0.00 0.00 85 1015.7
20260508083501 7 69 4.8 4.8 0.00 0.00 0.00 84 1015.5
20260508082956 8 49 4.8 6.4 0.00 0.00 0.00 82 1015.8
20260508082453 8 69 4.8 6.4 0.00 0.00 0.00 81 1015.8
20260508081951 8 101 4.8 6.4 0.00 0.00 0.00 80 1016.0
20260508081448 8 69 1.6 6.4 0.00 0.00 0.00 79 1015.8
20260508080944 8 63 3.2 4.8 0.00 0.00 0.00 78 1015.8
20260508080442 8 176 3.2 4.8 0.00 0.00 0.00 78 1015.8
20260508075939 8 164 3.2 3.2 0.00 0.00 0.00 78 1016.2
20260508075436 8 144 3.2 3.2 0.00 0.00 0.00 79 1016.0
20260508074933 8 28 3.2 3.2 0.00 0.00 0.00 80 1016.1
20260508074431 8 90 1.6 1.6 0.00 0.00 0.00 79 1016.2
20260508073927 8 114 0.0 4.8 0.00 0.00 0.00 79 1016.0
20260508073425 8 279 0.0 0.0 0.00 0.00 0.00 79 1016.1
20260508072922 8 20 0.0 4.8 0.00 0.00 0.00 79 1016.2
20260508072418 9 29 3.2 3.2 0.00 0.00 0.00 78 1016.1
20260508071916 9 65 3.2 4.8 0.00 0.00 0.00 77 1016.1
20260508071413 9 253 3.2 3.2 0.00 0.00 0.00 78 1015.7
20260508070911 9 95 3.2 3.2 0.00 0.00 0.00 77 1015.8
20260508070408 9 45 3.2 3.2 0.00 0.00 0.00 75 1015.7
20260508065906 10 130 4.8 4.8 0.00 0.00 0.00 74 1015.7
20260508065404 10 151 3.2 4.8 0.00 0.00 0.00 74 1015.6
20260508064902 10 175 0.0 3.2 0.00 0.00 0.00 73 1015.8
20260508064359 10 105 1.6 8.0 0.00 0.00 0.00 72 1015.7
20260508063857 10 120 4.8 8.0 0.00 0.00 0.00 71 1015.7
20260508063354 10 116 4.8 9.7 0.00 0.00 0.00 71 1015.4
20260508062851 10 111 8.0 8.0 0.00 0.00 0.00 71 1015.1
20260508062349 10 134 8.0 11.3 0.00 0.00 0.00 71 1015.5
20260508061846 10 57 8.0 14.5 0.00 0.00 0.00 70 1016.1
20260508061343 11 26 11.3 12.9 0.00 0.00 0.00 65 1016.5
20260508060839 11 355 0.0 17.7 0.00 0.00 0.00 63 1017.3
20260508060337 11 2 4.8 12.9 0.00 0.00 0.00 64 1017.0
20260508055832 11 330 4.8 8.0 0.00 0.08 0.08 65 1016.2
20260508055330 11 59 3.2 9.7 0.00 0.08 0.08 63 1015.4
20260508054826 11 33 3.2 11.3 0.00 0.08 0.08 62 1015.4
20260508054324 11 83 4.8 6.4 0.00 0.08 0.08 62 1015.5
20260508053820 11 131 4.8 8.0 0.00 0.08 0.08 62 1015.1
20260508053318 11 72 3.2 12.9 0.00 0.08 0.08 63 1015.0
20260508052815 11 67 4.8 6.4 0.00 0.08 0.08 63 1015.3
20260508052312 11 97 4.8 9.7 0.00 0.08 0.08 63 1015.6
20260508051808 11 67 4.8 6.4 0.00 0.08 0.08 64 1015.0
20260508051304 11 87 6.4 16.1 0.00 0.08 0.08 63 1015.1
20260508050801 11 126 11.3 12.9 0.00 0.08 0.08 63 1015.0
20260508050258 11 103 0.0 12.9 0.00 0.08 0.08 62 1015.3
20260508045753 11 39 4.8 16.1 0.00 0.08 0.08 62 1015.3
20260508045251 11 135 8.0 16.1 0.00 0.08 0.08 61 1015.1
20260508044749 11 90 8.0 8.0 0.00 0.08 0.08 61 1015.7
20260508044245 11 28 8.0 16.1 0.00 0.08 0.08 61 1016.0
20260508043741 11 23 8.0 16.1 0.00 0.08 0.08 61 1016.0
20260508043239 12 23 1.6 19.3 0.00 0.08 0.08 61 1015.5
20260508042735 11 30 9.7 12.9 0.00 0.08 0.08 61 1015.3
20260508042233 12 19 0.0 4.8 0.00 0.08 0.08 59 1014.9
20260508041729 12 90 4.8 11.3 0.00 0.08 0.08 58 1014.5
20260508041226 12 122 8.0 16.1 0.00 0.08 0.08 57 1014.8
20260508040722 12 106 3.2 17.7 0.00 0.08 0.08 57 1014.5
20260508040220 12 33 8.0 16.1 0.00 0.08 0.08 56 1014.8
20260508035717 12 60 4.8 16.1 0.00 0.08 0.08 55 1014.9
20260508035215 12 28 11.3 19.3 0.00 0.08 0.08 54 1014.9
20260508034711 13 61 16.1 19.3 0.00 0.08 0.08 54 1014.8
20260508034209 13 48 11.3 29.0 0.00 0.08 0.08 51 1015.0
20260508033705 14 20 4.8 12.9 0.00 0.08 0.08 44 1014.8
20260508033204 15 48 3.2 3.2 0.00 0.08 0.08 42 1014.5
20260508032700 15 66 0.0 3.2 0.00 0.08 0.08 41 1014.7
20260508032157 15 82 1.6 4.8 0.00 0.08 0.08 39 1014.5
20260508031654 15 135 4.8 4.8 0.00 0.08 0.08 38 1014.7
20260508031150 15 114 0.0 3.2 0.00 0.08 0.08 38 1014.7
20260508030647 15 135 0.0 4.8 0.00 0.08 0.08 38 1014.5
20260508030145 15 103 3.2 4.8 0.00 0.08 0.08 38 1014.2
20260508025641 15 107 3.2 3.2 0.00 0.08 0.08 40 1014.4
20260508025138 15 156 3.2 3.2 0.00 0.08 0.08 39 1014.2
20260508024634 15 124 3.2 4.8 0.00 0.08 0.08 39 1014.3
20260508024132 15 114 0.0 3.2 0.00 0.08 0.08 38 1014.3
20260508023627 15 175 3.2 4.8 0.00 0.08 0.08 37 1014.2
20260508023125 15 90 0.0 3.2 0.00 0.08 0.08 37 1014.1
20260508022621 15 67 4.8 11.3 0.00 0.08 0.08 37 1014.0
20260508022118 15 18 0.0 16.1 0.00 0.08 0.08 39 1014.1
20260508021614 16 230 4.8 11.3 0.00 0.08 0.08 35 1014.2
20260508021110 16 48 3.2 8.0 0.00 0.08 0.08 37 1014.3
20260508020608 16 30 6.4 6.4 0.00 0.08 0.08 37 1014.5
20260508020105 16 342 8.0 17.7 0.00 0.08 0.08 38 1014.3
20260508015603 16 298 6.4 16.1 0.00 0.08 0.08 37 1014.2
20260508015059 16 44 11.3 17.7 0.00 0.08 0.08 37 1014.0
20260508014555 16 2 6.4 16.1 0.00 0.08 0.08 36 1013.6
20260508014052 16 31 11.3 24.1 0.00 0.08 0.08 36 1013.4
20260508013548 17 15 8.0 32.2 0.00 0.08 0.08 34 1013.1
20260508013045 17 26 3.2 6.4 0.00 0.08 0.08 31 1013.0
20260508012542 17 45 6.4 6.4 0.00 0.08 0.08 29 1012.8
20260508012040 17 11 3.2 4.8 0.00 0.08 0.08 27 1012.5
20260508011538 17 19 3.2 3.2 0.00 0.08 0.08 27 1012.8
20260508011035 18 9 3.2 4.8 0.00 0.08 0.08 27 1012.5
20260508010532 18 0 0.0 4.8 0.00 0.08 0.08 28 1012.8
20260508010029 18 20 0.0 4.8 0.00 0.08 0.08 28 1012.7
20260508005526 18 8 0.0 8.0 0.00 0.08 0.08 27 1012.3
20260508005022 18 350 4.8 8.0 0.00 0.08 0.08 27 1012.7
20260508004518 18 12 3.2 6.4 0.00 0.08 0.08 27 1012.7
20260508004015 18 337 3.2 6.4 0.00 0.08 0.08 26 1012.4
20260508003512 18 275 3.2 6.4 0.00 0.08 0.08 26 1012.5
20260508003009 18 17 6.4 11.3 0.00 0.08 0.08 26 1012.7
20260508002505 18 358 6.4 11.3 0.00 0.08 0.08 26 1012.5
20260508002003 18 9 3.2 8.0 0.00 0.08 0.08 27 1012.5
20260508001458 18 320 0.0 3.2 0.00 0.08 0.08 26 1012.4
20260508000955 19 270 6.4 14.5 0.00 0.08 0.08 24 1012.5
20260508000450 20 356 3.2 11.3 0.00 0.08 0.08 23 1012.3
20260507235948 20 279 6.4 14.5 0.00 0.08 0.08 22 1012.5
20260507235444 20 266 8.0 12.9 0.00 0.08 0.08 24 1012.7
20260507234942 20 286 4.8 9.7 0.00 0.08 0.08 23 1012.5
20260507234439 19 272 12.9 19.3 0.00 0.08 0.08 24 1012.5
20260507233935 20 235 3.2 12.9 0.00 0.08 0.08 24 1012.4
20260507233432 20 238 12.9 19.3 0.00 0.08 0.08 23 1012.7
20260507232931 19 280 12.9 24.1 0.00 0.08 0.08 24 1012.5
20260507232426 20 246 6.4 24.1 0.00 0.08 0.08 24 1012.5
20260507231924 20 270 4.8 12.9 0.00 0.08 0.08 24 1012.4
20260507231420 20 257 11.3 16.1 0.00 0.08 0.08 24 1012.5
20260507230917 20 244 8.0 27.4 0.00 0.08 0.08 23 1012.8
20260507230415 21 270 12.9 25.7 0.00 0.08 0.08 23 1012.7
20260507225914 21 295 9.7 20.9 0.00 0.08 0.08 23 1012.8
20260507225411 21 298 11.3 19.3 0.00 0.08 0.08 22 1012.4
20260507224907 21 310 6.4 22.5 0.00 0.08 0.08 23 1012.8
20260507224403 20 335 4.8 35.4 0.00 0.08 0.08 23 1012.7
20260507223900 20 270 1.6 19.3 0.00 0.08 0.08 24 1012.7
20260507223350 20 339 4.8 22.5 0.00 0.08 0.08 25 1012.7
20260507222847 20 302 4.8 19.3 0.00 0.08 0.08 23 1012.8
20260507222343 20 294 4.8 16.1 0.00 0.08 0.08 25 1013.0
20260507221841 19 317 6.4 11.3 0.00 0.08 0.08 25 1012.8
20260507221337 18 259 11.3 16.1 0.00 0.08 0.08 25 1013.1
20260507220833 18 1 8.0 17.7 0.00 0.08 0.08 25 1013.0
20260507220332 18 278 11.3 14.5 0.00 0.08 0.08 24 1013.1
20260507215828 18 261 17.7 25.7 0.00 0.08 0.08 25 1013.3
20260507215325 18 229 8.0 20.9 0.00 0.08 0.08 25 1013.3
20260507214822 18 328 4.8 14.5 0.00 0.08 0.08 26 1013.4
20260507214319 19 305 11.3 22.5 0.00 0.08 0.08 24 1013.5
20260507213814 18 239 17.7 22.5 0.00 0.08 0.08 25 1013.7
20260507213311 19 276 11.3 19.3 0.00 0.08 0.08 25 1013.6
20260507212808 18 276 14.5 24.1 0.00 0.08 0.08 26 1013.6
20260507212307 18 259 11.3 30.6 0.00 0.08 0.08 25 1013.7
20260507211801 18 285 14.5 32.2 0.00 0.08 0.08 25 1014.0
20260507211257 19 270 17.7 38.6 0.00 0.08 0.08 25 1013.8
20260507210754 19 315 3.2 37.0 0.00 0.08 0.08 26 1014.0
20260507210251 20 324 9.7 19.3 0.00 0.08 0.08 24 1014.1
20260507205747 20 297 17.7 29.0 0.00 0.08 0.08 24 1014.0
20260507205244 20 244 8.0 32.2 0.00 0.08 0.08 23 1014.2
20260507204741 20 328 4.8 29.0 0.00 0.08 0.08 25 1014.3
20260507204239 20 261 22.5 30.6 0.00 0.08 0.08 24 1014.1
20260507203736 20 341 14.5 43.5 0.00 0.08 0.08 24 1014.2
20260507203233 20 296 19.3 37.0 0.00 0.08 0.08 24 1014.2
20260507202730 20 275 6.4 29.0 0.00 0.08 0.08 26 1014.4
20260507202226 20 3 12.9 24.1 0.00 0.08 0.08 25 1014.4
20260507201721 19 294 19.3 33.8 0.00 0.08 0.08 26 1014.5
20260507201218 19 267 17.7 27.4 0.00 0.08 0.08 26 1014.7
20260507200714 19 328 12.9 29.0 0.00 0.08 0.08 26 1014.7
20260507200210 20 318 4.8 29.0 0.00 0.08 0.08 27 1014.8
20260507195707 19 351 6.4 37.0 0.00 0.08 0.08 25 1014.7
20260507195204 19 324 17.7 37.0 0.00 0.08 0.08 26 1015.0
20260507194701 19 243 3.2 29.0 0.00 0.08 0.08 28 1015.0
20260507194156 19 339 19.3 43.5 0.00 0.08 0.08 26 1015.0
20260507193654 20 351 12.9 35.4 0.00 0.08 0.08 25 1014.9
20260507193151 18 255 14.5 46.7 0.00 0.08 0.08 28 1014.9
20260507192646 18 242 14.5 40.2 0.00 0.08 0.08 28 1015.0
20260507192144 18 265 22.5 40.2 0.00 0.08 0.08 28 1015.4
20260507191639 19 291 12.9 30.6 0.00 0.08 0.08 26 1015.5
20260507191136 19 231 16.1 24.1 0.00 0.08 0.08 27 1015.4
20260507190633 18 349 8.0 24.1 0.00 0.08 0.08 28 1015.4
20260507190132 18 335 8.0 24.1 0.00 0.08 0.08 29 1015.3
20260507185630 18 0 4.8 16.1 0.00 0.08 0.08 30 1015.6
20260507185126 18 270 14.5 14.5 0.00 0.08 0.08 30 1015.5
20260507184624 17 3 3.2 30.6 0.00 0.08 0.08 32 1015.7
20260507184122 17 281 6.4 24.1 0.00 0.08 0.08 30 1015.6
20260507183618 17 250 12.9 20.9 0.00 0.08 0.08 30 1015.6
20260507183115 17 238 9.7 20.9 0.00 0.08 0.08 30 1015.7
20260507182611 17 270 4.8 12.9 0.00 0.08 0.08 31 1015.7
20260507182107 17 339 9.7 16.1 0.00 0.08 0.08 31 1015.8
20260507181605 17 228 11.3 20.9 0.00 0.08 0.08 29 1015.8
20260507181101 17 300 16.1 24.1 0.00 0.08 0.08 30 1015.6
20260507180558 17 226 11.3 17.7 0.00 0.08 0.08 31 1015.6
20260507180054 17 272 9.7 12.9 0.00 0.08 0.08 32 1015.7
20260507175550 17 202 19.3 19.3 0.00 0.08 0.08 33 1015.8
20260507175048 17 209 14.5 20.9 0.00 0.08 0.08 32 1016.0
20260507174545 17 229 14.5 14.5 0.00 0.08 0.08 31 1016.0
20260507174043 16 220 8.0 20.9 0.00 0.08 0.08 32 1016.1
20260507173539 17 223 9.7 17.7 0.00 0.08 0.08 31 1016.0
20260507173037 17 241 3.2 14.5 0.00 0.08 0.08 32 1016.0
20260507172532 17 180 6.4 14.5 0.00 0.08 0.08 32 1016.0
20260507172029 17 223 14.5 24.1 0.00 0.08 0.08 32 1015.8
20260507171525 16 254 9.7 9.7 0.00 0.08 0.08 34 1016.0
20260507171023 16 157 4.8 9.7 0.00 0.08 0.08 34 1016.0
20260507170519 16 232 0.0 16.1 0.00 0.08 0.08 35 1016.1
20260507170016 16 230 6.4 14.5 0.00 0.08 0.08 35 1016.3
20260507165512 15 231 16.1 22.5 0.00 0.08 0.08 36 1016.3
20260507165009 16 229 4.8 14.5 0.00 0.08 0.08 36 1016.1
20260507164505 15 220 8.0 20.9 0.00 0.08 0.08 37 1016.4
20260507164002 16 230 12.9 17.7 0.00 0.08 0.08 35 1016.3
20260507163459 16 199 11.3 17.7 0.00 0.08 0.08 36 1016.1
20260507162956 15 225 6.4 19.3 0.00 0.08 0.08 37 1016.4
20260507162451 16 166 9.7 12.9 0.00 0.08 0.08 35 1016.4
20260507161948 15 199 4.8 14.5 0.00 0.08 0.08 36 1016.4
20260507161444 15 222 14.5 16.1 0.00 0.08 0.08 36 1016.7
20260507160942 14 231 6.4 14.5 0.00 0.08 0.08 38 1016.8
20260507160437 15 223 12.9 19.3 0.00 0.08 0.08 36 1016.7
20260507155933 14 235 11.3 12.9 0.00 0.08 0.08 36 1016.7
20260507155430 14 195 8.0 14.5 0.05 0.08 0.08 37 1016.8
20260507154927 14 183 11.3 11.3 0.00 0.08 0.08 38 1017.0
20260507154423 13 174 14.5 14.5 0.00 0.08 0.08 38 1016.8
20260507153921 13 180 12.9 16.1 0.05 0.08 0.08 38 1017.0
20260507153417 13 213 9.7 17.7 0.05 0.08 0.08 38 1016.7
20260507152914 13 192 4.8 11.3 0.00 0.05 0.05 39 1016.7
20260507152410 13 158 8.0 9.7 0.00 0.05 0.05 39 1016.7
20260507151906 12 229 4.8 12.9 0.05 0.05 0.05 40 1017.1
20260507151403 12 153 6.4 12.9 0.05 0.05 0.05 39 1016.8
20260507150900 12 160 4.8 14.5 0.00 0.05 0.05 38 1016.8
20260507150356 12 190 8.0 11.3 0.00 0.05 0.05 40 1016.9
20260507145852 11 163 11.3 11.3 0.05 0.05 0.05 40 1016.8
20260507145349 11 221 3.2 14.5 0.05 0.05 0.05 40 1017.0
20260507144846 11 168 6.4 14.5 0.00 0.05 0.05 41 1017.1
20260507144343 11 194 6.4 12.9 0.05 0.05 0.05 40 1017.0
20260507143840 11 180 4.8 14.5 0.05 0.05 0.05 40 1017.0
20260507143337 10 204 8.0 14.5 0.00 0.03 0.03 41 1016.8
20260507142833 10 220 4.8 11.3 0.05 0.03 0.03 43 1017.0
20260507142329 10 229 8.0 11.3 0.05 0.03 0.03 43 1017.0
20260507141826 10 147 11.3 19.3 0.00 0.03 0.03 43 1016.7
20260507141323 9 201 4.8 12.9 0.00 0.03 0.03 43 1016.7
20260507140819 9 200 4.8 14.5 0.05 0.03 0.03 44 1016.8
20260507140316 8 179 6.4 17.7 0.05 0.03 0.03 44 1016.7
20260507135814 8 202 8.0 14.5 0.00 0.00 0.00 45 1017.0
20260507135311 8 167 6.4 16.1 0.00 0.00 0.00 45 1016.9
20260507134808 8 214 9.7 22.5 0.05 0.00 0.00 46 1016.8
20260507134304 8 253 6.4 11.3 0.05 0.00 0.00 46 1016.8
20260507133800 7 243 4.8 14.5 0.00 0.00 0.00 46 1016.9
20260507133256 7 213 4.8 9.7 0.00 0.00 0.00 47 1016.8
20260507132754 7 178 4.8 12.9 0.00 0.00 0.00 47 1016.7
20260507132251 7 184 9.7 12.9 0.00 0.00 0.00 47 1016.7
20260507131748 7 181 6.4 12.9 0.00 0.00 0.00 47 1016.8
20260507131244 7 176 6.4 16.1 0.00 0.00 0.00 48 1016.7